Regional Weather Roundup
Issued by NWS

Home | Current Version | Previous Version | Text Only | Print | Product List | Glossary Off
Versions: 1 2 3 4 5 6 7 8 9 10 11 12 13 14 15 16 17 18 19 20 21 22 23 24 25 26 27 28 29 30 31 32 33 34 35 36 37 38 39 40 41 42 43 44 45 46 47 48 49 50

000
ASUS45 KABQ 111910
RWRNM
NEW MEXICO REGIONAL WEATHER ROUNDUP
NATIONAL WEATHER SERVICE ALBUQUERQUE NM
1200 PM MST THU FEB 11 2016

NOTE: "FAIR" MEANS FEW OR NO CLOUDS BELOW 12,000 FEET AGL WITH NO
       SIGNIFICANT WEATHER OR OBSTRUCTIONS TO VISION.

      THIS PRODUCT IS RELEASED AS TWO VERSIONS.  ONE VERSION NEAR
      THE TOP OF THE HOUR CONTAINING PRELIMINARY DATA FROM ALBUQUERQUE
      AND OTHER STATIONS.  A FINAL VERSION WITH ADDITIONAL DATA IS
      ISSUED ABOUT 10 MINUTES AFTER THE HOUR.

NMZ501-503-504-510>518-112000-
NORTHWEST PLATEAU/NORTHCENTRAL MOUNTAINS

CITY           SKY/WX    TMP DP  RH WIND       PRES   REMARKS
FARMINGTON     SUNNY     46  25  43 SW5       30.39F
LOS ALAMOS     SUNNY     49  17  28 CALM      30.37F
SANTA FE       SUNNY     53  19  26 N13       30.33F
TAOS           SUNNY     46  19  34 CALM      30.37F
ANGEL FIRE     FAIR      38  20  48 CALM      30.36F

$$
NMZ402-403-502-505>509-112000-
WESTCENTRAL MOUNTAINS/SOUTHWEST MOUNTAINS

CITY           SKY/WX    TMP DP  RH WIND       PRES   REMARKS
GALLUP         SUNNY     52  21  29 VRB5      30.41F
GRANTS         SUNNY     57  14  18 N8        30.40F
SILVER CITY      N/A     66   9  10 S6        30.33F

$$
NMZ407-409-411-412-112000-
SOUTHERN DESERTS

CITY           SKY/WX    TMP DP  RH WIND       PRES   REMARKS
LORDSBURG      FAIR      61  21  21 NW3       30.29F
DEMING         SUNNY     68  17  14 E6        30.28F
LAS CRUCES     SUNNY     67  16  14 N6        30.29F
HOLLOMAN AFB   SUNNY     66  14  13 NW13      30.25F
ALAMOGORDO     SUNNY     64  18  16 CALM      30.27F
T OR C         SUNNY     61  16  17 VRB6      30.30F

$$
NMZ519>523-112000-
CENTRAL VALLEYS/CENTRAL HIGHLANDS

CITY           SKY/WX    TMP DP  RH WIND       PRES   REMARKS
ALBUQUERQUE    SUNNY     56  19  23 VRB3      30.35F
DOUBLE EAGLE   SUNNY     57  21  24 E5        30.35F
MORIARTY ARPT  FAIR      60  10  13 NW7       30.33F
CLINES CORNERS SUNNY     53  18  25 NW16      30.31F
BELEN          FAIR      57  16  20 N7        30.35F
SOCORRO        FAIR      59  17  19 N14       30.32F

$$
NMZ524>526-539-540-112000-
SOUTHCENTRAL MOUNTAINS

CITY           SKY/WX    TMP DP  RH WIND       PRES   REMARKS
RUIDOSO        SUNNY     63   1   8 NW12      30.34F

$$
NMZ527>531-112000-
NORTHEAST HIGHLANDS/NORTHEAST PLAINS

CITY           SKY/WX    TMP DP  RH WIND       PRES   REMARKS
LAS VEGAS      SUNNY     58  11  15 S14       30.29F
RATON          SUNNY     57   8  14 S9        30.24F
CLAYTON        SUNNY     66  14  13 SW16G23   30.19F

$$
NMZ532>537-112000-
EASTCENTRAL PLAINS

CITY           SKY/WX    TMP DP  RH WIND       PRES   REMARKS
TUCUMCARI      SUNNY     62  18  18 SW5       30.22F
CANNON AFB     NOT AVBL
CLOVIS AIRPORT SUNNY     63  23  22 NE8       30.25F

$$
NMZ028-029-538-112000-
SOUTHEAST PLAINS

CITY           SKY/WX    TMP DP  RH WIND       PRES   REMARKS
ROSWELL        SUNNY     68  16  13 N14       30.22F
ARTESIA        SUNNY     64  23  20 NE14      30.23F
CARLSBAD       SUNNY     65  22  19 NW16G24   30.21F
HOBBS          SUNNY     63  23  22 N10G16    30.21F


$$



USA.gov is the U.S. government's official web portal to all federal, state and local government web resources and services.